This demonstration page uses our WeatherBlox Daily Observations layout. Learn more.

Hourly Observations for June 19, 2016

Temp ( °F °C ) Dew Point ( °F °C ) Humidity (%) Winds ( mph kmh ) Pressure ( in mb ) Visibility ( mi km ) Precip ( " mm )
12:15 am 00:15 Clear 74 23.3 68 20.1 82 82 S 7 11 30.06 1018 10 16.0934 0 0
12:35 am 00:35 Clear 73 23 68 20.1 84 84 S 7 11 30.06 1018 10 16.0934 0 0
12:55 am 00:55 Clear 73 22.8 68 20 84 84 S 7 11 30.06 1018 10 16.0934 0 0
1:15 am 01:15 Clear 73 22.5 68 20 86 86 S 8 13 30.06 1018 10 16.0934 0 0
1:35 am 01:35 Clear 72 22.2 68 19.9 87 87 S 5 7 30.06 1018 10 16.0934 0 0
1:55 am 01:55 Clear 72 22 67 19.7 87 87 S 6 9 30.06 1018 10 16.0934 0 0
2:15 am 02:15 Clear 71 21.6 67 19.6 88 88 S 3 6 30.03 1017 10 16.0934 0 0
2:35 am 02:35 Clear 71 21.5 67 19.5 88 88 S 6 9 30.03 1017 10 16.0934 0 0
2:55 am 02:55 Clear 71 21.4 67 19.5 89 89 SSW 5 7 30.03 1017 10 16.0934 0 0
3:15 am 03:15 Clear 70 21.1 67 19.3 90 90 SSW 5 7 30.03 1017 10 16.0934 0 0
3:35 am 03:35 Clear 69 20.7 67 19.2 91 91 SW 3 6 30.03 1017 10 16.0934 0 0
3:55 am 03:55 Clear 69 20.7 67 19.2 91 91 SSW 5 7 30.03 1017 10 16.0934 0 0
4:15 am 04:15 Clear 69 20.7 66 19.1 91 91 S 6 9 30.03 1017 10 16.0934 0 0
4:35 am 04:35 Clear 69 20.6 66 19 91 91 S 6 9 30.06 1018 10 16.0934 0 0
4:55 am 04:55 Clear 69 20.5 66 19 91 91 S 6 9 30.06 1018 10 16.0934 0 0
5:15 am 05:15 Clear 69 20.5 66 19 91 91 S 6 9 30.06 1018 10 16.0934 0 0
5:35 am 05:35 Clear 68 20 65 18.6 92 92 S 5 7 30.06 1018 7 11.26538 0 0
5:55 am 05:55 Clear 67 19.5 65 18.5 94 94 S 3 6 30.06 1018 7 11.26538 0 0
6:15 am 06:15 Sunny with Mist and Fog 67 19.6 65 18.6 94 94 S 5 7 30.06 1018 5 8.0467 0 0
6:35 am 06:35 Sunny with Mist and Fog 67 19.7 65 18.6 93 93 S 5 7 30.06 1018 5 8.0467 0 0
6:55 am 06:55 Sunny with Mist and Fog 68 20 66 18.9 93 93 S 5 7 30.06 1018 5 8.0467 0 0
7:15 am 07:15 Sunny with Mist and Fog 68 20.2 66 19 93 93 S 5 7 30.06 1018 5 8.0467 0 0
7:35 am 07:35 Sunny 69 20.8 67 19.5 92 92 S 8 13 30.03 1017 7 11.26538 0 0
7:55 am 07:55 Sunny 71 21.5 67 19.6 89 89 S 12 19 30.03 1017 10 16.0934 0 0
8:15 am 08:15 Sunny 72 22.3 68 20 87 87 S 7 11 30.03 1017 10 16.0934 0 0
8:35 am 08:35 Sunny 73 23 68 20 83 83 S 10 17 30.03 1017 10 16.0934 0 0
8:55 am 08:55 Sunny 74 23.5 68 20.1 81 81 S 10 17 30.03 1017 10 16.0934 0 0
9:15 am 09:15 Sunny 75 24.1 69 20.4 80 80 S 10 17 30.03 1017 10 16.0934 0 0
9:35 am 09:35 Sunny 76 24.6 69 20.4 78 78 S 9 15 30 1016 10 16.0934 0 0
9:55 am 09:55 Sunny 77 25 69 20.4 76 76 S 12 19 30 1016 10 16.0934 0 0
10:15 am 10:15 Sunny 78 25.8 68 19.9 70 70 S 15 24 30 1016 10 16.0934 0 0
10:35 am 10:35 Sunny 79 26.1 68 20.2 70 70 S 15 24 30 1016 10 16.0934 0 0
10:55 am 10:55 Sunny 80 26.7 68 20.1 67 67 S 14 22 30 1016 10 16.0934 0 0
11:15 am 11:15 Sunny 81 27.2 68 19.9 64 64 S 14 22 30 1016 10 16.0934 0 0
11:35 am 11:35 Sunny 82 27.5 67 19.5 62 62 S 16 26 30 1016 10 16.0934 0 0
11:55 am 11:55 Sunny 83 28.1 67 19.3 59 59 S 14 22 29.97 1015 10 16.0934 0 0
12:15 pm 12:15 Sunny 83 28.4 67 19.2 57 57 SSW 16 26 29.97 1015 10 16.0934 0 0
12:35 pm 12:35 Sunny 84 28.9 67 19.2 56 56 S 16 26 29.97 1015 10 16.0934 0 0
12:55 pm 12:55 Sunny 85 29.5 66 18.9 53 53 S 15 24 29.97 1015 10 16.0934 0 0
1:15 pm 13:15 Sunny 85 29.3 66 19.1 54 54 S 14 22 29.94 1014 10 16.0934 0 0
1:35 pm 13:35 Sunny 86 30.1 65 18.4 50 50 S 16 26 29.94 1014 10 16.0934 0 0
1:55 pm 13:55 Sunny 86 30 66 18.7 51 51 S 18 30 29.94 1014 10 16.0934 0 0
2:15 pm 14:15 Sunny 87 30.4 66 18.7 50 50 S 17 28 29.94 1014 10 16.0934 0 0
2:35 pm 14:35 Sunny 87 30.3 65 18.4 49 49 S 17 28 29.94 1014 10 16.0934 0 0
2:55 pm 14:55 Sunny 87 30.8 65 18.2 47 47 S 17 28 29.94 1014 10 16.0934 0 0
3:15 pm 15:15 Sunny 88 31.3 64 17.6 44 44 S 15 24 29.94 1014 10 16.0934 0 0
3:35 pm 15:35 Sunny 89 31.5 64 18 45 45 S 16 26 29.88 1012 10 16.0934 0 0
3:55 pm 15:55 Sunny 89 31.5 64 17.8 44 44 S 15 24 29.88 1012 10 16.0934 0 0
4:15 pm 16:15 Sunny 90 32 65 18.1 44 44 S 17 28 29.88 1012 10 16.0934 0 0
4:35 pm 16:35 Sunny 90 32.3 65 18.2 43 43 S 15 24 29.88 1012 10 16.0934 0 0
4:55 pm 16:55 Sunny 90 32.3 65 18.2 43 43 S 15 24 29.88 1012 10 16.0934 0 0
5:15 pm 17:15 Sunny 91 32.5 65 18.2 43 43 S 10 17 29.88 1012 10 16.0934 0 0
5:35 pm 17:35 Sunny 91 32.5 65 18.3 43 43 SSW 14 22 29.88 1012 10 16.0934 0 0
5:55 pm 17:55 Sunny 91 32.5 64 17.8 42 42 SSW 15 24 29.88 1012 10 16.0934 0 0
6:15 pm 18:15 Sunny 90 32.3 63 17.2 40 40 S 17 28 29.88 1012 10 16.0934 0 0
6:35 pm 18:35 Sunny 90 32.2 63 17.4 41 41 S 14 22 29.88 1012 10 16.0934 0 0
6:55 pm 18:55 Sunny 90 32.1 64 17.6 42 42 S 13 20 29.88 1012 10 16.0934 0 0
7:15 pm 19:15 Sunny 89 31.8 64 17.7 43 43 S 12 19 29.88 1012 10 16.0934 0 0
7:35 pm 19:35 Sunny 89 31.6 64 17.8 44 44 S 8 13 29.88 1012 10 16.0934 0 0
7:55 pm 19:55 Sunny 88 31 65 18.2 46 46 S 8 13 29.91 1013 10 16.0934 0 0
8:15 pm 20:15 Sunny 87 30.5 65 18.4 48 48 S 8 13 29.91 1013 10 16.0934 0 0
8:35 pm 20:35 Sunny 84 28.8 67 19.5 57 57 S 8 13 29.91 1013 10 16.0934 0 0
8:55 pm 20:55 Sunny 82 27.6 67 19.6 62 62 SSE 7 11 29.91 1013 10 16.0934 0 0
9:15 pm 21:15 Clear 80 26.7 67 19.5 65 65 SSE 8 13 29.94 1014 10 16.0934 0 0
9:35 pm 21:35 Clear 80 26.6 67 19.6 66 66 SSE 8 13 29.94 1014 10 16.0934 0 0
9:55 pm 21:55 Clear 81 27.1 67 19.7 64 64 S 12 19 29.94 1014 10 16.0934 0 0
10:15 pm 22:15 Clear 80 26.9 67 19.7 65 65 S 13 20 29.97 1015 10 16.0934 0 0
10:35 pm 22:35 Clear 80 26.6 67 19.6 66 66 S 10 17 29.97 1015 10 16.0934 0 0
10:55 pm 22:55 Clear 79 26.1 67 19.6 67 67 S 7 11 29.97 1015 10 16.0934 0 0
11:15 pm 23:15 Clear 78 25.7 67 19.6 69 69 S 7 11 29.97 1015 10 16.0934 0 0
11:35 pm 23:35 Clear 78 25.7 67 19.5 69 69 S 10 17 29.97 1015 10 16.0934 0 0
11:55 pm 23:55 Clear 78 25.5 67 19.3 69 69 S 8 13 29.97 1015 10 16.0934 0 0

Powered by AerisWeather